Location: Platte
(43.3870°N, 98.8440°W)
Time: 16:18:20
(UTC-05:00)

Cosmos 2233 Rocket - Pass Details

Date: 21 May 2018
Orbit: 954 x 989 km, 82.9° (Epoch: 19 June)

Event Time Altitude Azimuth Distance (km) Brightness Sun altitude
Exits shadow 22:04:58 - 178° (S) 3,648 6.6 -10.5°
Rises 22:05:03 0° 178° (S) 3,617 6.6 -10.5°
Reaches altitude 10° 22:07:32 10° 177° (S) 2,678 5.9 -10.9°
Maximum altitude 22:13:36 71° 94° (E) 1,015 4.0 -11.7°
Drops below altitude 10° 22:19:46 10° 12° (NNE) 2,714 6.8 -12.5°
Sets 22:22:18 0° 11° (N) 3,670 7.5 -12.8°
